Regional Weather Roundup
Issued by NWS

Home | Current Version | Previous Version | Graphics & Text | Print | Product List | Glossary On
Versions: 1 2 3 4 5 6 7 8 9 10 11 12 13 14 15 16 17 18 19 20 21 22 23 24 25 26 27 28 29 30 31 32 33 34 35 36 37 38 39 40 41 42 43 44 45 46 47 48 49 50
000
ASUS43 KOAX 011410
RWRNE

WEATHER ROUNDUP FOR NEBRASKA
NATIONAL WEATHER SERVICE OMAHA NE
900 AM CDT WED APR 01 2015

NOTES: SATELLITE DATA IS BEING USED TO AUGMENT CLOUD COVER ABOVE
       12000 FEET.
       "FAIR" INDICATES FEW OR NO CLOUDS BELOW 12,000 FEET WITH NO
       SIGNIFICANT WEATHER AND/OR OBSTRUCTIONS TO VISIBILITY.

  * THESE STATIONS DO NOT REPORT WEATHER SUCH AS RAIN...SNOW OR FOG.

NEZ001>004-019>022-054>056-011500-
NEBRASKA PANHANDLE

CITY           SKY/WX    TMP DP  RH WIND       PRES   REMARKS
SCOTTSBLUFF    CLOUDY    50  27  40 W10G21    29.69R
ALLIANCE       CLOUDY    50  29  44 W10       29.63R
CHADRON        PTSUNNY   59  28  30 W14       29.61R
KIMBALL        CLOUDY    56  24  29 W16       29.72R
SIDNEY         CLOUDY    50  27  40 W8        29.70R
$$

NEZ057>060-069>072-079>082-011500-
SOUTHWEST NEBRASKA

CITY           SKY/WX    TMP DP  RH WIND       PRES   REMARKS
NORTH PLATTE   MOSUNNY   59  43  55 S10       29.65F
IMPERIAL         N/A     55  43  63 S13       29.67R
LEXINGTON      SUNNY     60  42  50 S16       29.68F
MCCOOK         MOSUNNY   59  42  53 S16G22    29.68F
OGALLALA       PTSUNNY   50  41  72 CALM      29.66R
$$

NEZ005>010-023>029-035>040-094-011500-
NORTH CENTRAL NEBRASKA

CITY           SKY/WX    TMP DP  RH WIND       PRES   REMARKS
VALENTINE      CLOUDY    61  41  47 SW22G30   29.53F
AINSWORTH      PTSUNNY   60  38  45 S22       29.57S
BROKEN BOW     SUNNY     61  42  49 S16G28    29.65F
O`NEILL        MOSUNNY   59  39  46 S18G24    29.62F
ORD            SUNNY     57  38  48 S15G21    29.66F
THEDFORD       PTSUNNY   59  43  54 S17G23    29.61S
$$

NEZ041-046>049-061>064-073>077-083>087-011500-
SOUTH CENTRAL NEBRASKA

CITY           SKY/WX    TMP DP  RH WIND       PRES   REMARKS
GRAND ISLAND   SUNNY     59  43  55 S16       29.72S
AURORA         SUNNY     56  42  59 S17       29.73S
HASTINGS       SUNNY     59  43  55 S10G20    29.72S
HEBRON         SUNNY     59  41  51 S16G23    29.77F
HOLDREGE       SUNNY     60  43  54 SW18G28   29.71S
KEARNEY *      SUNNY     59  43  55 S22       29.71S
YORK           SUNNY     59  43  55 S21       29.74F
$$

NEZ011>018-030>034-042>045-011500-
NORTHEAST NEBRASKA

CITY           SKY/WX    TMP DP  RH WIND       PRES   REMARKS
NORFOLK        SUNNY     58  39  49 S24G32    29.70F
ALBION         SUNNY     57  40  53 S15       29.70F
BLAIR          SUNNY     62  32  32 S21G28    29.78S
COLUMBUS *     SUNNY     57  36  44 S20G26    29.75F
FREMONT        SUNNY     60  33  36 SE17      29.77S
TEKAMAH        SUNNY     64  34  32 S21G26    29.76F
WAYNE          SUNNY     56  35  44 S18       29.72F
$$

NEZ050>053-065>068-078-088>093-011500-
SOUTHEAST NEBRASKA

CITY           SKY/WX    TMP DP  RH WIND       PRES   REMARKS
LINCOLN        SUNNY     61  38  42 S16       29.78F
OMAHA EPPLEY   MOSUNNY   60  33  36 S21G30    29.79F
BEATRICE       SUNNY     59  38  45 S13       29.79F
FALLS CITY     SUNNY     60  35  39 SE15G22   29.83F
NEBRASKA CITY  SUNNY     60  30  31 S16G22    29.81F
PLATTSMOUTH    SUNNY     59  29  32 S16       29.81R
$$

NEZ044-045-051>053-067-011500-
OMAHA AREA

CITY           SKY/WX    TMP DP  RH WIND       PRES   REMARKS
OMAHA EPPLEY   MOSUNNY   60  33  36 S21G30    29.79F
BLAIR          SUNNY     62  32  32 S21G28    29.78S
FREMONT        SUNNY     60  33  36 SE17      29.77S
MILLARD        SUNNY     62  35  36 SE14G22   29.80R
OFFUTT AFB     SUNNY     60  34  37 SE15      29.80F
PLATTSMOUTH    SUNNY     59  29  32 S16       29.81R
WAHOO          FAIR      59  33  37 S16       29.78S
$$


USA.gov is the U.S. government's official web portal to all federal, state and local government web resources and services.